DLH33K LPPR-EDDM

Flight info

Callsign DLH33K
Flight time N/A
Altitude 36000
Route BELDU DCT ADORO DCT FITSE DCT DGO DCT LPA DCT GOSVI DCT TOPTU DCT TOU DCT GAI DCT MEN DCT NINUN DCT LATAM DCT ETREK DCT LTP DCT SOPLO DCT OMASI DCT KINNI DCT SOSAL DCT KORED DCT BERSU N871 DITON/N0439F370 DCT NUNRI T103 BETOS BETOS1B
Aircraft A321/M-SDE2E3FGIJ1LORWXYZ/HB1

Departure

Time 2026-05-05 07:26
Airport Francisco de Sá Carneiro Airport (LPPR)

Arrival

Time N/A
Airport Munich Airport (EDDM)
Time Latitude Longitude Altitude Speed Heading
2026-05-05 06:53 41.23640 -8.67241 245 ft 0 kts 79°
2026-05-05 07:19 41.23640 -8.67242 245 ft 2 kts 79°
2026-05-05 07:19 41.23635 -8.67275 245 ft 4 kts 79°
2026-05-05 07:20 41.23631 -8.67304 243 ft 4 kts 95°
2026-05-05 07:20 41.23640 -8.67331 242 ft 4 kts 154°
2026-05-05 07:20 41.23666 -8.67340 242 ft 3 kts 169°
2026-05-05 07:20 41.23669 -8.67341 242 ft 0 kts 169°
2026-05-05 07:22 41.23668 -8.67341 242 ft 1 kts 169°
2026-05-05 07:22 41.23640 -8.67334 242 ft 7 kts 171°
2026-05-05 07:23 41.23573 -8.67353 241 ft 13 kts 204°
2026-05-05 07:23 41.23484 -8.67387 240 ft 14 kts 177°
2026-05-05 07:23 41.23387 -8.67360 239 ft 11 kts 169°
2026-05-05 07:23 41.23333 -8.67426 240 ft 14 kts 254°
2026-05-05 07:24 41.23313 -8.67556 238 ft 15 kts 261°
2026-05-05 07:24 41.23295 -8.67691 237 ft 10 kts 259°
2026-05-05 07:24 41.23294 -8.67698 238 ft 0 kts 259°
2026-05-05 07:24 41.23293 -8.67707 238 ft 2 kts 264°
2026-05-05 07:25 41.23315 -8.67733 238 ft 6 kts 341°
2026-05-05 07:25 41.23338 -8.67739 238 ft 0 kts 349°
2026-05-05 07:25 41.23346 -8.67741 238 ft 2 kts 349°
2026-05-05 07:25 41.23406 -8.67756 237 ft 32 kts 349°
2026-05-05 07:26 41.23887 -8.67883 223 ft 106 kts 348°
2026-05-05 07:26 41.24821 -8.68129 199 ft 164 kts 348°
2026-05-05 07:26 41.26043 -8.68453 485 ft 185 kts 349°
2026-05-05 07:26 41.27317 -8.68785 1170 ft 186 kts 350°
2026-05-05 07:27 41.28601 -8.69120 1766 ft 193 kts 349°
2026-05-05 07:27 41.29984 -8.69482 1985 ft 214 kts 349°
2026-05-05 07:27 41.31525 -8.69886 2159 ft 238 kts 349°
2026-05-05 07:27 41.33233 -8.70001 2529 ft 254 kts 13°
2026-05-05 07:28 41.34829 -8.69003 3234 ft 258 kts 41°
2026-05-05 07:28 41.35858 -8.67060 3990 ft 261 kts 71°
2026-05-05 07:28 41.36082 -8.64665 4708 ft 265 kts 89°
2026-05-05 07:28 41.36081 -8.62184 5388 ft 270 kts 89°
2026-05-05 07:29 41.36077 -8.59663 6067 ft 274 kts 89°
2026-05-05 07:29 41.36071 -8.57111 6758 ft 278 kts 88°
2026-05-05 07:29 41.36065 -8.54519 7432 ft 282 kts 88°
2026-05-05 07:29 41.36061 -8.51895 8092 ft 285 kts 88°
2026-05-05 07:30 41.36058 -8.49239 8724 ft 290 kts 88°
2026-05-05 07:30 41.36063 -8.43809 9994 ft 297 kts 88°
2026-05-05 07:30 41.36066 -8.41046 10347 ft 312 kts 88°
2026-05-05 07:31 41.36070 -8.38009 10483 ft 334 kts 88°
2026-05-05 07:31 41.36071 -8.34888 10753 ft 348 kts 88°
2026-05-05 07:31 41.36066 -8.31635 11288 ft 354 kts 88°
2026-05-05 07:31 41.36057 -8.28341 11871 ft 357 kts 88°
2026-05-05 07:32 41.36048 -8.25030 12451 ft 361 kts 89°
2026-05-05 07:32 41.36039 -8.21666 13019 ft 364 kts 89°
2026-05-05 07:32 41.36029 -8.18279 13580 ft 367 kts 89°
2026-05-05 07:32 41.36020 -8.14862 14132 ft 371 kts 88°
2026-05-05 07:33 41.36011 -8.11413 14677 ft 374 kts 89°
2026-05-05 07:33 41.36002 -8.07930 15208 ft 378 kts 89°
2026-05-05 07:33 41.35993 -8.04417 15737 ft 381 kts 89°
2026-05-05 07:33 41.35981 -8.00880 16257 ft 384 kts 89°
2026-05-05 07:34 41.35964 -7.97316 16761 ft 387 kts 89°
2026-05-05 07:34 41.35945 -7.93711 17241 ft 391 kts 89°
2026-05-05 07:34 41.35927 -7.90074 17712 ft 394 kts 89°
2026-05-05 07:34 41.35908 -7.86412 18209 ft 397 kts 89°
2026-05-05 07:35 41.35890 -7.82718 18675 ft 400 kts 89°
2026-05-05 07:35 41.35873 -7.78994 19121 ft 404 kts 88°
2026-05-05 07:35 41.36075 -7.75261 19549 ft 406 kts 82°
2026-05-05 07:35 41.36408 -7.71514 19972 ft 409 kts 82°
2026-05-05 07:36 41.36744 -7.67740 20382 ft 412 kts 82°
2026-05-05 07:36 41.37083 -7.63936 20779 ft 416 kts 82°
2026-05-05 07:36 41.37425 -7.60108 21159 ft 419 kts 82°
2026-05-05 07:36 41.37770 -7.56238 21553 ft 422 kts 82°
2026-05-05 07:37 41.38116 -7.52346 21922 ft 425 kts 82°
2026-05-05 07:37 41.38464 -7.48413 22281 ft 428 kts 82°
2026-05-05 07:37 41.38809 -7.44461 22616 ft 432 kts 82°
2026-05-05 07:37 41.39155 -7.40475 22964 ft 435 kts 82°
2026-05-05 07:38 41.39498 -7.36469 23297 ft 438 kts 82°
2026-05-05 07:38 41.39841 -7.32423 23636 ft 441 kts 82°
2026-05-05 07:38 41.40186 -7.28357 23976 ft 444 kts 82°
2026-05-05 07:38 41.40535 -7.24250 24290 ft 447 kts 82°
2026-05-05 07:39 41.40887 -7.20124 24619 ft 450 kts 82°
2026-05-05 07:39 41.41238 -7.16014 24920 ft 454 kts 82°
2026-05-05 07:39 41.41593 -7.11825 25216 ft 457 kts 83°
2026-05-05 07:39 41.41948 -7.07596 25522 ft 460 kts 83°
2026-05-05 07:40 41.42300 -7.03347 25824 ft 463 kts 83°
2026-05-05 07:40 41.42654 -6.99068 26104 ft 467 kts 83°
2026-05-05 07:40 41.43008 -6.94753 26377 ft 469 kts 83°
2026-05-05 07:40 41.43361 -6.90421 26650 ft 472 kts 83°
2026-05-05 07:41 41.43715 -6.86057 26929 ft 475 kts 83°
2026-05-05 07:41 41.44073 -6.81677 27182 ft 477 kts 83°
2026-05-05 07:41 41.44433 -6.77264 27436 ft 480 kts 83°
2026-05-05 07:41 41.44793 -6.72838 27698 ft 482 kts 83°
2026-05-05 07:42 41.45154 -6.68387 27957 ft 485 kts 84°
2026-05-05 07:42 41.45514 -6.63905 28224 ft 487 kts 84°
2026-05-05 07:42 41.45873 -6.59407 28471 ft 489 kts 84°
2026-05-05 07:42 41.46230 -6.54895 28717 ft 491 kts 84°
2026-05-05 07:43 41.46584 -6.50352 28988 ft 493 kts 84°
2026-05-05 07:43 41.46935 -6.45802 29224 ft 495 kts 84°
2026-05-05 07:43 41.47289 -6.41220 29455 ft 497 kts 84°
2026-05-05 07:43 41.47644 -6.36631 29703 ft 499 kts 84°
2026-05-05 07:44 41.48006 -6.32026 29916 ft 501 kts 82°
2026-05-05 07:44 41.48672 -6.27458 30125 ft 502 kts 74°
2026-05-05 07:44 41.49796 -6.23056 30324 ft 502 kts 66°
2026-05-05 07:44 41.51124 -6.18734 30532 ft 504 kts 66°
2026-05-05 07:45 41.52450 -6.14406 30721 ft 505 kts 66°
2026-05-05 07:45 41.53758 -6.10110 30921 ft 506 kts 67°
2026-05-05 07:45 41.55072 -6.05758 31197 ft 505 kts 67°
2026-05-05 07:45 41.55953 -6.02831 31384 ft 504 kts 67°
2026-05-05 07:46 41.57679 -5.97077 31710 ft 503 kts 67°
2026-05-05 07:46 41.58558 -5.94142 31867 ft 503 kts 67°
2026-05-05 07:46 41.59854 -5.89807 32094 ft 503 kts 67°
2026-05-05 07:46 41.61154 -5.85466 32334 ft 502 kts 67°
2026-05-05 07:47 41.62450 -5.81137 32567 ft 502 kts 67°
2026-05-05 07:47 41.63746 -5.76814 32785 ft 501 kts 68°
2026-05-05 07:47 41.65041 -5.72482 32976 ft 501 kts 67°
2026-05-05 07:47 41.66331 -5.68158 33193 ft 501 kts 68°
2026-05-05 07:48 41.67603 -5.63880 33378 ft 501 kts 68°
2026-05-05 07:48 41.68886 -5.59552 33573 ft 501 kts 68°
2026-05-05 07:48 41.70188 -5.55157 33766 ft 501 kts 68°
2026-05-05 07:48 41.71456 -5.50883 33958 ft 501 kts 68°
2026-05-05 07:49 41.72743 -5.46540 34149 ft 501 kts 68°
2026-05-05 07:49 41.74026 -5.42206 34333 ft 502 kts 68°
2026-05-05 07:49 41.75310 -5.37863 34510 ft 502 kts 68°
2026-05-05 07:49 41.76592 -5.33513 34690 ft 502 kts 68°
2026-05-05 07:50 41.77867 -5.29167 34859 ft 502 kts 68°
2026-05-05 07:50 41.79142 -5.24807 35014 ft 503 kts 68°
2026-05-05 07:50 41.81711 -5.16017 35054 ft 503 kts 68°
2026-05-05 07:51 41.84242 -5.07334 35054 ft 504 kts 68°
2026-05-05 07:51 41.86797 -4.98564 35055 ft 505 kts 68°
2026-05-05 07:52 41.89342 -4.89769 35056 ft 506 kts 69°
2026-05-05 07:52 41.91878 -4.80953 35052 ft 506 kts 69°
2026-05-05 07:53 41.94414 -4.72125 35054 ft 507 kts 69°
2026-05-05 07:53 41.96943 -4.63287 35055 ft 507 kts 69°
2026-05-05 07:54 41.99463 -4.54441 35055 ft 507 kts 69°
2026-05-05 07:54 42.01980 -4.45601 35045 ft 505 kts 69°
2026-05-05 07:55 42.04480 -4.36787 35046 ft 504 kts 69°
2026-05-05 07:55 42.06971 -4.27975 35045 ft 504 kts 69°
2026-05-05 07:56 42.09459 -4.19141 35040 ft 505 kts 70°
2026-05-05 07:56 42.11927 -4.10351 35037 ft 505 kts 70°
2026-05-05 07:57 42.14405 -4.01485 35034 ft 506 kts 70°
2026-05-05 07:57 42.16880 -3.92598 35036 ft 506 kts 70°
2026-05-05 07:58 42.19351 -3.83707 35034 ft 506 kts 70°
2026-05-05 07:58 42.21817 -3.74807 35024 ft 506 kts 70°
2026-05-05 07:59 42.24261 -3.65910 35027 ft 506 kts 70°
2026-05-05 07:59 42.26697 -3.57009 35026 ft 505 kts 70°
2026-05-05 08:00 42.29133 -3.48115 35026 ft 505 kts 70°
2026-05-05 08:00 42.31566 -3.39222 35026 ft 505 kts 70°
2026-05-05 08:01 42.33989 -3.30321 35026 ft 505 kts 70°
2026-05-05 08:01 42.36400 -3.21410 35026 ft 505 kts 71°
2026-05-05 08:02 42.38794 -3.12486 35026 ft 505 kts 71°
2026-05-05 08:02 42.41192 -3.03549 35026 ft 505 kts 71°
2026-05-05 08:03 42.43588 -2.94606 35025 ft 506 kts 71°
2026-05-05 08:03 42.45286 -2.85417 35027 ft 502 kts 87°
2026-05-05 08:04 42.45510 -2.75991 35027 ft 501 kts 92°
2026-05-05 08:04 42.45634 -2.66556 35026 ft 502 kts 92°
2026-05-05 08:05 42.45766 -2.57072 35027 ft 504 kts 92°
2026-05-05 08:05 42.45891 -2.47563 35026 ft 506 kts 92°
2026-05-05 08:06 42.45999 -2.38028 35026 ft 507 kts 92°
2026-05-05 08:06 42.46744 -2.28504 35027 ft 513 kts 79°
2026-05-05 08:07 42.48326 -2.19076 35026 ft 513 kts 79°
2026-05-05 08:07 42.49898 -2.09647 35026 ft 514 kts 79°
2026-05-05 08:08 42.51461 -2.00199 35027 ft 514 kts 79°
2026-05-05 08:08 42.53002 -1.90809 35020 ft 514 kts 79°
2026-05-05 08:09 42.54547 -1.81335 35013 ft 515 kts 79°
2026-05-05 08:09 42.56084 -1.71861 35006 ft 514 kts 79°
2026-05-05 08:10 42.57612 -1.62385 35004 ft 514 kts 79°
2026-05-05 08:10 42.59136 -1.52916 35011 ft 513 kts 80°
2026-05-05 08:11 42.60641 -1.43460 35009 ft 512 kts 79°
2026-05-05 08:11 42.62135 -1.34018 35002 ft 511 kts 80°
2026-05-05 08:12 42.63619 -1.24576 34997 ft 510 kts 80°
2026-05-05 08:12 42.65102 -1.15165 34996 ft 509 kts 80°
2026-05-05 08:13 42.66577 -1.05768 35001 ft 508 kts 80°
2026-05-05 08:13 42.68033 -0.96392 35003 ft 507 kts 80°
2026-05-05 08:14 42.69473 -0.87023 34993 ft 506 kts 81°
2026-05-05 08:14 42.70894 -0.77728 34994 ft 505 kts 80°
2026-05-05 08:15 42.72322 -0.68385 35000 ft 504 kts 80°
2026-05-05 08:15 42.73746 -0.59062 34997 ft 504 kts 81°
2026-05-05 08:16 42.75156 -0.49727 35004 ft 503 kts 81°
2026-05-05 08:16 42.76546 -0.40398 34998 ft 503 kts 81°
2026-05-05 08:17 42.77930 -0.31068 34998 ft 503 kts 81°
2026-05-05 08:17 42.79663 -0.21844 34998 ft 505 kts 69°
2026-05-05 08:18 42.83148 -0.13576 35002 ft 505 kts 50°
2026-05-05 08:18 42.87618 -0.06204 34999 ft 504 kts 50°
2026-05-05 08:19 42.92057 0.01206 34994 ft 505 kts 50°
2026-05-05 08:19 42.96468 0.08611 34994 ft 508 kts 50°
2026-05-05 08:20 43.00934 0.16110 34993 ft 510 kts 50°
2026-05-05 08:20 43.05405 0.23610 34999 ft 508 kts 50°
2026-05-05 08:21 43.09865 0.31103 34997 ft 508 kts 51°
2026-05-05 08:21 43.14313 0.38622 35002 ft 507 kts 51°
2026-05-05 08:22 43.18736 0.46128 34995 ft 506 kts 51°
2026-05-05 08:22 43.23159 0.53628 34996 ft 505 kts 51°
2026-05-05 08:23 43.27568 0.61127 35001 ft 504 kts 51°
2026-05-05 08:23 43.31964 0.68631 34997 ft 504 kts 51°
2026-05-05 08:24 43.36354 0.76141 34989 ft 504 kts 51°
2026-05-05 08:24 43.40743 0.83652 35002 ft 504 kts 51°
2026-05-05 08:25 43.45117 0.91163 35002 ft 503 kts 51°
2026-05-05 08:25 43.49488 0.98695 35003 ft 504 kts 51°
2026-05-05 08:26 43.53853 1.06241 34995 ft 504 kts 52°
2026-05-05 08:26 43.58214 1.13788 34997 ft 504 kts 52°
2026-05-05 08:27 43.62570 1.21355 35000 ft 503 kts 52°
2026-05-05 08:27 43.66912 1.28941 35006 ft 503 kts 52°
2026-05-05 08:28 43.71167 1.36545 35002 ft 503 kts 54°
2026-05-05 08:28 43.75311 1.44344 34999 ft 503 kts 55°
2026-05-05 08:29 43.79415 1.52180 35000 ft 502 kts 55°
2026-05-05 08:30 43.85596 1.63875 35001 ft 501 kts 54°
2026-05-05 08:30 43.87658 1.67755 35188 ft 500 kts 54°
2026-05-05 08:30 43.89719 1.71637 35438 ft 499 kts 54°
2026-05-05 08:30 43.91774 1.75514 35688 ft 498 kts 54°
2026-05-05 08:31 43.93816 1.79378 35913 ft 497 kts 55°
2026-05-05 08:31 43.97875 1.87185 35984 ft 499 kts 56°
2026-05-05 08:32 44.01822 1.95135 35992 ft 499 kts 57°
2026-05-05 08:32 44.05735 2.03116 35995 ft 500 kts 57°
2026-05-05 08:33 44.09005 2.09738 35991 ft 500 kts 57°
2026-05-05 08:33 44.13592 2.18981 35978 ft 500 kts 57°
2026-05-05 08:34 44.17528 2.26954 35977 ft 499 kts 57°
2026-05-05 08:34 44.21452 2.34928 35978 ft 499 kts 57°
2026-05-05 08:35 44.25372 2.42900 35979 ft 498 kts 57°
2026-05-05 08:35 44.28641 2.49577 35971 ft 497 kts 57°